This is the latest recevied weather packets stored in our database for station/object IZ5ILU-16. If no packets are shown the sender has not sent any weather packets the latest 10 day(s).
| Time | Temp. | Humidity | Pressure | Rain* | Wind** | Luminosity | Snow |
|---|---|---|---|---|---|---|---|
| 1787675143 | 30° C | 49% | 1012.1 hPa | 0 mm | - | - | - |
| 1787674542 | 30.56° C | 50% | 1011.9 hPa | 0 mm | - | - | - |
| 1787673942 | 30.56° C | 50% | 1011.9 hPa | 0 mm | - | - | - |
| 1787673343 | 30.56° C | 49% | 1011.8 hPa | 0 mm | - | - | - |
| 1787672742 | 30.56° C | 49% | 1011.7 hPa | 0 mm | - | - | - |
| 1787672142 | 30.56° C | 50% | 1011.7 hPa | 0 mm | - | - | - |
| 1787671543 | 30.56° C | 50% | 1011.6 hPa | 0 mm | - | - | - |
| 1787670943 | 30.56° C | 50% | 1011.5 hPa | 0 mm | - | - | - |
| 1787670342 | 30° C | 49% | 1011.5 hPa | 0 mm | - | - | - |
| 1787669743 | 30° C | 49% | 1011.4 hPa | 0 mm | - | - | - |
| 1787669143 | 30° C | 50% | 1011.3 hPa | 0 mm | - | - | - |
| 1787668543 | 29.44° C | 50% | 1011.2 hPa | 0 mm | - | - | - |
| 1787667943 | 29.44° C | 52% | 1011.3 hPa | 0 mm | - | - | - |
| 1787667343 | 28.89° C | 54% | 1011.3 hPa | 0 mm | - | - | - |
| 1787666743 | 28.89° C | 52% | 1011.2 hPa | 0 mm | - | - | - |
| 1787666143 | 29.44° C | 52% | 1011.2 hPa | 0 mm | - | - | - |
| 1787665543 | 29.44° C | 49% | 1011 hPa | 0 mm | - | - | - |
| 1787664943 | 29.44° C | 49% | 1011 hPa | 0 mm | - | - | - |
| 1787664343 | 29.44° C | 53% | 1010.9 hPa | 0 mm | - | - | - |
| 1787663743 | 28.89° C | 56% | 1010.9 hPa | 0 mm | - | - | - |
| 1787663143 | 28.89° C | 56% | 1010.9 hPa | 0 mm | - | - | - |
| 1787662543 | 28.89° C | 58% | 1011 hPa | 0 mm | - | - | - |
| 1787661943 | 28.33° C | 60% | 1011 hPa | 0 mm | - | - | - |
| 1787661343 | 27.78° C | 61% | 1011.1 hPa | 0 mm | - | - | - |
| 1787660743 | 27.78° C | 63% | 1011.2 hPa | 0 mm | - | - | - |
* Rain latest hour (hover to see other rain measurements)
** Current wind speed in m/s (hover to see current wind gust speed)